When you browse on this site, cookies collect data to enhance your experience and personalize the content and advertising you see.
Visit our Privacy Policy to learn more. By continuing to use the site, you agree to this use of cookies and data.
  • In United Kingdom
  • List of Countries
  • For 7 days
  • Water Temperature
  • Satellite Maps
  • Weather Map
  • Weather Widgets
  • user-avatar
    Login

    Hourly Weather Canillo

    Today, 19 December, Wednesday

    Time Temperature Precipitation Wind Pressure Humidity
    00:00 +1°C° 0 mm 1 mps 618 mmHg 64%
    01:00 +1°C° 0 mm 1 mps 617 mmHg 67%
    02:00 0°C° 0 mm 1 mps 617 mmHg 69%
    03:00 0°C° 0 mm 1 mps 617 mmHg 72%
    04:00 -1°C° 0 mm 1 mps 617 mmHg 75%
    05:00 -1°C° 0 mm 1 mps 616 mmHg 77%
    06:00 -2°C° 0 mm 1 mps 616 mmHg 83%
    07:00 -1°C° 0 mm 1 mps 616 mmHg 79%
    08:00 0°C° 0 mm 1 mps 617 mmHg 76%
    09:00 +1°C° 0 mm 1 mps 617 mmHg 72%
    10:00 +1°C° 0 mm 2 mps 618 mmHg 67%
    11:00 +2°C° 0 mm 2 mps 618 mmHg 61%
    12:00 +4°C° 0 mm 2 mps 618 mmHg 55%
    13:00 +3°C° 0.1 mm 2 mps 618 mmHg 58%
    14:00 +3°C° 0.1 mm 2 mps 618 mmHg 61%
    15:00 +2°C° 0.1 mm 2 mps 618 mmHg 65%
    16:00 +1°C° 0 mm 2 mps 618 mmHg 71%
    17:00 -2°C° 0 mm 2 mps 618 mmHg 78%
    18:00 -3°C° 0 mm 2 mps 618 mmHg 85%
    19:00 -3°C° 0 mm 2 mps 618 mmHg 84%
    20:00 -4°C° 0 mm 2 mps 618 mmHg 83%
    21:00 -4°C° 0 mm 2 mps 618 mmHg 82%
    22:00 -2°C° 0 mm 1 mps 618 mmHg 80%
    23:00 -3°C° 0 mm 1 mps 618 mmHg 78%

    Tomorrow, 20 December, Thursday

    Time Temperature Precipitation Wind Pressure Humidity
    00:00 -3°C° 0 mm 1 mps 618 mmHg 75%
    01:00 -3°C° 0 mm 1 mps 618 mmHg 74%
    02:00 -3°C° 0 mm 1 mps 618 mmHg 74%
    03:00 -3°C° 0 mm 1 mps 619 mmHg 73%
    04:00 -3°C° 0 mm 1 mps 619 mmHg 74%
    05:00 -3°C° 0 mm 1 mps 619 mmHg 74%
    06:00 -3°C° 0 mm 1 mps 619 mmHg 75%
    07:00 -2°C° 0 mm 1 mps 620 mmHg 73%
    08:00 -1°C° 0 mm 1 mps 620 mmHg 72%
    09:00 0°C° 0 mm 1 mps 621 mmHg 70%
    10:00 +1°C° 0 mm 1 mps 622 mmHg 64%
    11:00 +2°C° 0 mm 1 mps 622 mmHg 59%
    12:00 +4°C° 0 mm 1 mps 623 mmHg 53%
    13:00 +4°C° 0 mm 1 mps 623 mmHg 56%
    14:00 +3°C° 0 mm 1 mps 622 mmHg 58%
    15:00 +3°C° 0 mm 1 mps 622 mmHg 61%
    16:00 +1°C° 0 mm 1 mps 622 mmHg 67%
    17:00 0°C° 0 mm 1 mps 622 mmHg 72%
    18:00 -2°C° 0 mm 1 mps 621 mmHg 78%
    19:00 -2°C° 0 mm 1 mps 621 mmHg 76%
    20:00 -2°C° 0 mm 1 mps 622 mmHg 75%
    21:00 -2°C° 0 mm 1 mps 622 mmHg 73%
    22:00 -2°C° 0 mm 1 mps 622 mmHg 72%
    23:00 -2°C° 0 mm 1 mps 622 mmHg 71%

    Day after tomorrow, 21 December, Friday

    Time Temperature Precipitation Wind Pressure Humidity
    00:00 -2°C° 0 mm 1 mps 622 mmHg 71%
    01:00 -2°C° 0 mm 1 mps 622 mmHg 71%
    02:00 -2°C° 0 mm 1 mps 622 mmHg 71%
    03:00 -2°C° 0 mm 1 mps 621 mmHg 71%
    04:00 -2°C° 0 mm 1 mps 621 mmHg 71%
    05:00 -1°C° 0 mm 1 mps 621 mmHg 71%
    06:00 -1°C° 0 mm 1 mps 621 mmHg 70%
    07:00 0°C° 0 mm 1 mps 622 mmHg 66%
    08:00 +1°C° 0 mm 1 mps 623 mmHg 62%
    09:00 +3°C° 0 mm 1 mps 624 mmHg 57%
    10:00 +4°C° 0 mm 1 mps 624 mmHg 56%
    11:00 +6°C° 0 mm 1 mps 625 mmHg 54%
    12:00 +7°C° 0 mm 1 mps 625 mmHg 52%
    13:00 +7°C° 0 mm 1 mps 625 mmHg 55%
    14:00 +6°C° 0 mm 0 mps 625 mmHg 58%
    15:00 +5°C° 0 mm 0 mps 624 mmHg 61%
    16:00 +5°C° 0 mm 1 mps 624 mmHg 65%
    17:00 +4°C° 0 mm 1 mps 624 mmHg 69%
    18:00 +3°C° 0 mm 1 mps 623 mmHg 73%
    19:00 +3°C° 0 mm 1 mps 624 mmHg 73%
    20:00 +3°C° 0 mm 1 mps 624 mmHg 74%
    21:00 +2°C° 0 mm 1 mps 624 mmHg 75%
    22:00 +3°C° 0 mm 1 mps 624 mmHg 73%
    23:00 +3°C° 0 mm 1 mps 624 mmHg 72%

    22 December, Saturday

    Time Temperature Precipitation Wind Pressure Humidity
    00:00 +3°C° 0 mm 1 mps 624 mmHg 70%
    01:00 +3°C° 0 mm 1 mps 624 mmHg 70%
    02:00 +3°C° 0 mm 1 mps 624 mmHg 70%
    03:00 +2°C° 0 mm 2 mps 623 mmHg 70%
    04:00 +2°C° 0 mm 2 mps 624 mmHg 72%
    05:00 +2°C° 0 mm 2 mps 624 mmHg 74%
    06:00 +2°C° 0 mm 2 mps 624 mmHg 75%
    07:00 +3°C° 0 mm 1 mps 624 mmHg 75%
    08:00 +4°C° 0 mm 1 mps 625 mmHg 74%
    09:00 +5°C° 0 mm 1 mps 625 mmHg 73%
    10:00 +7°C° 0 mm 1 mps 626 mmHg 68%
    11:00 +8°C° 0 mm 1 mps 626 mmHg 64%
    12:00 +10°C° 0 mm 1 mps 627 mmHg 59%
    13:00 +9°C° 0 mm 1 mps 626 mmHg 62%
    14:00 +9°C° 0 mm 1 mps 626 mmHg 65%
    15:00 +8°C° 0 mm 1 mps 625 mmHg 68%
    16:00 +7°C° 0 mm 1 mps 625 mmHg 73%
    17:00 +5°C° 0 mm 1 mps 624 mmHg 77%
    18:00 +3°C° 0 mm 1 mps 624 mmHg 82%
    19:00 +3°C° 0 mm 1 mps 624 mmHg 81%
    20:00 +3°C° 0 mm 1 mps 624 mmHg 81%
    21:00 +3°C° 0 mm 1 mps 624 mmHg 80%
    22:00 +3°C° 0 mm 1 mps 624 mmHg 80%
    23:00 +3°C° 0 mm 1 mps 624 mmHg 79%

    23 December, Sunday

    Time Temperature Precipitation Wind Pressure Humidity
    00:00 +3°C° 0 mm 1 mps 624 mmHg 79%
    01:00 +3°C° 0 mm 1 mps 624 mmHg 79%
    02:00 +3°C° 0 mm 1 mps 624 mmHg 79%
    03:00 +2°C° 0 mm 1 mps 623 mmHg 78%
    04:00 +2°C° 0 mm 1 mps 623 mmHg 77%
    05:00 +2°C° 0 mm 1 mps 623 mmHg 76%
    06:00 +2°C° 0 mm 1 mps 623 mmHg 75%
    07:00 +3°C° 0 mm 1 mps 624 mmHg 72%
    08:00 +4°C° 0 mm 1 mps 625 mmHg 68%
    09:00 +5°C° 0 mm 1 mps 625 mmHg 65%
    10:00 +7°C° 0 mm 1 mps 626 mmHg 61%
    11:00 +9°C° 0 mm 1 mps 626 mmHg 56%
    12:00 +10°C° 0 mm 1 mps 626 mmHg 52%
    13:00 +10°C° 0 mm 1 mps 626 mmHg 56%
    14:00 +8°C° 0 mm 0 mps 625 mmHg 60%
    15:00 +8°C° 0 mm 0 mps 625 mmHg 64%
    16:00 +7°C° 0 mm 1 mps 625 mmHg 67%
    17:00 +6°C° 0 mm 1 mps 624 mmHg 71%
    18:00 +4°C° 0 mm 1 mps 624 mmHg 74%
    19:00 +4°C° 0 mm 1 mps 624 mmHg 71%
    20:00 +4°C° 0 mm 1 mps 624 mmHg 68%
    21:00 +4°C° 0 mm 1 mps 624 mmHg 65%
    22:00 +4°C° 0 mm 1 mps 624 mmHg 63%
    23:00 +4°C° 0 mm 1 mps 624 mmHg 61%

    24 December, Monday

    Time Temperature Precipitation Wind Pressure Humidity
    00:00 +4°C° 0 mm 1 mps 624 mmHg 59%
    01:00 +4°C° 0 mm 1 mps 624 mmHg 57%
    02:00 +4°C° 0 mm 1 mps 623 mmHg 56%
    03:00 +4°C° 0 mm 1 mps 623 mmHg 55%
    04:00 +4°C° 0 mm 1 mps 623 mmHg 54%
    05:00 +4°C° 0 mm 1 mps 623 mmHg 53%
    06:00 +4°C° 0 mm 1 mps 623 mmHg 53%
    07:00 +5°C° 0 mm 1 mps 624 mmHg 53%
    08:00 +6°C° 0 mm 1 mps 624 mmHg 52%
    09:00 +7°C° 0 mm 1 mps 625 mmHg 52%
    10:00 +8°C° 0 mm 1 mps 625 mmHg 49%
    11:00 +10°C° 0 mm 1 mps 626 mmHg 47%
    12:00 +12°C° 0 mm 1 mps 626 mmHg 44%
    13:00 +11°C° 0 mm 1 mps 625 mmHg 48%
    14:00 +9°C° 0 mm 0 mps 625 mmHg 53%
    15:00 +9°C° 0 mm 0 mps 624 mmHg 57%
    16:00 +8°C° 0 mm 1 mps 624 mmHg 60%
    17:00 +6°C° 0 mm 1 mps 623 mmHg 63%
    18:00 +5°C° 0 mm 1 mps 622 mmHg 65%
    19:00 +5°C° 0 mm 1 mps 622 mmHg 64%
    20:00 +4°C° 0 mm 1 mps 622 mmHg 63%
    21:00 +4°C° 0 mm 1 mps 622 mmHg 61%
    22:00 +4°C° 0 mm 1 mps 622 mmHg 58%
    23:00 +4°C° 0 mm 1 mps 622 mmHg 56%
    Show more